Location: Mahannah Oil Field
(37.4664°N, 96.6003°W)
Time: 12:32:48
(UTC+00:00)

RESURS 01 DEB - Visible Passes

Search period start: 24 September 2021 00:00
Search period end: 04 October 2021 00:00
Orbit: 613 x 628 km, 97.9° (Epoch: 23 September)

Date Brightness Start Highest point End Pass type
(mag) Time Alt. Az. Time Alt. Az. Time Alt. Az.
24 Sep ? 02:01:08 16° NE 02:01:08 16° NE 02:02:31 10° NNE visible
24 Sep ? 03:38:18 13° NW 03:38:18 13° NW 03:38:58 10° NW visible
25 Sep ? 02:18:49 19° NNE 02:18:49 19° NNE 02:20:19 10° N visible
26 Sep ? 02:36:31 20° N 02:36:31 20° N 02:37:55 10° N visible
27 Sep ? 02:54:12 18° N 02:54:12 18° N 02:55:21 10° N visible
28 Sep ? 03:11:54 15° NNW 03:11:54 15° NNW 03:12:38 10° NNW visible
29 Sep ? 01:52:24 11° NNE 01:52:24 11° NNE 01:52:44 10° NNE visible
29 Sep ? 03:29:34 11° NNW 03:29:34 11° NNW 03:29:45 10° NNW visible
30 Sep ? 02:10:05 13° NNE 02:10:05 13° NNE 02:10:40 10° NNE visible
01 Oct ? 02:27:45 14° N 02:27:45 14° N 02:28:21 10° N visible
02 Oct ? 02:45:25 13° N 02:45:25 13° N 02:45:52 10° N visible
03 Oct ? 03:03:06 11° NNW 03:03:06 11° NNW 03:03:12 10° NNW visible
